Stanton, MN

12:34 PM CST on November 21, 2017 (GMT -0600)
Stanton

Weather History for KSYN - May, 2014

Change the Weather History Date:

Thursday, May 29, 2014

  Actual Average (KLVN) Record (KLVN)
Temperature  
Mean Temperature 66 °F -  
Max Temperature 83 °F 74 °F 93 °F (2006)
Min Temperature 50 °F 52 °F 33 °F (1965)
Cooling Degree Days 2    
Growing Degree Days 16 (Base 50)    
Moisture  
Dew Point 44 °F    
Average Humidity 46    
Maximum Humidity 87    
Minimum Humidity 19    
Precipitation  
Precipitation 0.00 in - - ()
Sea Level Pressure  
Sea Level Pressure 30.08 in    
Wind  
Wind Speed 4 mph (ESE)    
Max Wind Speed 14 mph    
Max Gust Speed 18 mph    
Visibility 10 miles    
Events      
Averages and records for this station are not official NWS values.
T = Trace of Precipitation, MM = Missing Value Source: NWS Daily Summary

Daily Weather History Graph

Daily Weather History Graph

Search for Another Location

Airport or City:

Trip Planner

Search our weather history database for the weather conditions in past years. The results will help you decide how hot, cold, wet, or windy it might be!

Date:

Astronomy

May. 29, 2014 Rise Set
Actual Time 5:32 AM CDT 8:47 PM CDT
Civil Twilight 4:56 AM CDT 9:22 PM CDT
Nautical Twilight 4:10 AM CDT 10:08 PM CDT
Astronomical Twilight 3:14 AM CDT 11:05 PM CDT
Moon 6:28 AM CDT (5/29) 9:35 PM CDT (5/29)
Length of Visible Light 16h 26m
Length of Day
15h 14m
New Moon, 1% of the Moon is Illuminated
May 29
New Moon
Jun 5
First Quarter
Jun 12
Full
Jun 19
Last Quarter
Jun 27
New

Hourly Weather History & Observations

Time (CDT) Temp. Dew Point Humidity Pressure Visibility Wind Dir Wind Speed Gust Speed Precip Events Conditions
12:12 AM 58.5 °F 51.1 °F 76% 30.07 in 10.0 mi Calm Calm - N/A   Clear
12:32 AM 57.9 °F 50.7 °F 77% 30.07 in 10.0 mi Calm Calm - N/A   Clear
1:12 AM 56.5 °F 49.1 °F 76% 30.06 in 10.0 mi Calm Calm - N/A   Clear
1:32 AM 55.4 °F 49.3 °F 80% 30.06 in 10.0 mi Calm Calm - N/A   Clear
1:53 AM 55.8 °F 50.0 °F 81% 30.06 in 10.0 mi Calm Calm - N/A   Clear
2:12 AM 54.9 °F 48.6 °F 79% 30.06 in 10.0 mi Calm Calm - N/A   Clear
2:32 AM 55.0 °F 49.1 °F 80% 30.07 in 10.0 mi Calm Calm - N/A   Clear
2:52 AM 54.1 °F 48.9 °F 82% 30.07 in 10.0 mi Calm Calm - N/A   Clear
3:12 AM 53.8 °F 48.4 °F 82% 30.07 in 10.0 mi Calm Calm - N/A   Clear
3:32 AM 52.0 °F 47.8 °F 86% 30.08 in 10.0 mi NNE 3.5 mph - N/A   Clear
3:52 AM 53.6 °F 47.1 °F 79% 30.08 in 10.0 mi Calm Calm - N/A   Clear
4:12 AM 54.1 °F 45.9 °F 74% 30.09 in 10.0 mi North 3.5 mph - N/A   Clear
4:32 AM 52.5 °F 45.7 °F 78% 30.09 in 10.0 mi Calm Calm - N/A   Clear
4:52 AM 52.9 °F 45.7 °F 77% 30.10 in 10.0 mi Calm Calm - N/A   Clear
5:13 AM 51.8 °F 46.2 °F 81% 30.10 in 10.0 mi Calm Calm - N/A   Clear
5:32 AM 50.9 °F 46.4 °F 85% 30.10 in 10.0 mi Calm Calm - N/A   Clear
5:52 AM 50.9 °F 46.2 °F 84% 30.12 in 10.0 mi Calm Calm - N/A   Clear
6:13 AM 51.3 °F 47.5 °F 87% 30.13 in 10.0 mi Calm Calm - N/A   Clear
6:32 AM 52.2 °F 46.9 °F 82% 30.13 in 7.0 mi Calm Calm - N/A   Clear
6:52 AM 55.6 °F 48.4 °F 77% 30.14 in 7.0 mi Calm Calm - N/A   Clear
7:13 AM 58.5 °F 50.5 °F 75% 30.14 in 10.0 mi Calm Calm - N/A   Clear
7:32 AM 61.0 °F 50.7 °F 69% 30.12 in 10.0 mi SSE 4.6 mph - N/A   Clear
7:52 AM 65.5 °F 49.5 °F 56% 30.12 in 10.0 mi SE 6.9 mph - N/A   Clear
8:32 AM 67.5 °F 48.6 °F 51% 30.12 in 10.0 mi SE 10.4 mph - N/A   Clear
8:52 AM 68.7 °F 48.0 °F 48% 30.12 in 10.0 mi SE 9.2 mph - N/A   Clear
9:13 AM 69.6 °F 46.8 °F 44% 30.13 in 10.0 mi SE 9.2 mph - N/A   Clear
9:32 AM 70.7 °F 47.5 °F 44% 30.13 in 10.0 mi SSE 5.8 mph - N/A   Clear
9:52 AM 72.1 °F 48.7 °F 43% 30.12 in 10.0 mi SSE 5.8 mph - N/A   Clear
10:13 AM 73.2 °F 47.7 °F 40% 30.11 in 10.0 mi SE 4.6 mph - N/A   Clear
10:32 AM 74.3 °F 46.6 °F 37% 30.11 in 10.0 mi ESE 9.2 mph - N/A   Clear
10:52 AM 75.4 °F 48.2 °F 38% 30.11 in 10.0 mi ESE 5.8 mph - N/A   Clear
11:12 AM 76.8 °F 46.2 °F 34% 30.11 in 10.0 mi ESE 10.4 mph - N/A   Clear
11:32 AM 77.0 °F 45.1 °F 32% 30.10 in 10.0 mi ESE 6.9 mph - N/A   Clear
11:52 AM 78.6 °F 44.4 °F 30% 30.10 in 10.0 mi East 11.5 mph - N/A   Clear
12:12 PM 78.3 °F 45.5 °F 31% 30.11 in 10.0 mi SE 9.2 mph - N/A   Clear
12:32 PM 79.2 °F 44.8 °F 30% 30.10 in 10.0 mi East 13.8 mph 18.4 mph N/A   Clear
12:53 PM 79.9 °F 45.1 °F 29% 30.10 in 10.0 mi ESE 8.1 mph - N/A   Clear
1:12 PM 79.7 °F 43.2 °F 27% 30.10 in 10.0 mi SE 10.4 mph - N/A   Clear
1:32 PM 80.2 °F 46.2 °F 30% 30.09 in 10.0 mi SE 8.1 mph - N/A   Clear
1:53 PM 81.0 °F 45.1 °F 28% 30.09 in 10.0 mi ESE 11.5 mph - N/A   Clear
2:12 PM 81.5 °F 42.8 °F 25% 30.09 in 10.0 mi ESE 9.2 mph - N/A   Clear
2:32 PM 80.8 °F 41.2 °F 24% 30.08 in 10.0 mi East 8.1 mph - N/A   Clear
2:53 PM 81.7 °F 42.1 °F 25% 30.08 in 10.0 mi ESE 6.9 mph - N/A   Clear
3:12 PM 83.3 °F 37.9 °F 20% 30.07 in 10.0 mi East 9.2 mph 17.3 mph N/A   Clear
3:32 PM 82.4 °F 36.1 °F 19% 30.07 in 10.0 mi ESE 9.2 mph 17.3 mph N/A   Clear
4:12 PM 82.4 °F 39.6 °F 22% 30.06 in 10.0 mi ESE 4.6 mph - N/A   Clear
4:32 PM 82.6 °F 40.8 °F 23% 30.05 in 10.0 mi SE 6.9 mph - N/A   Clear
5:12 PM 82.8 °F 40.3 °F 22% 30.04 in 10.0 mi East 8.1 mph - N/A   Clear
5:32 PM 83.3 °F 39.4 °F 21% 30.04 in 10.0 mi ESE 8.1 mph - N/A   Clear
5:52 PM 83.1 °F 39.4 °F 21% 30.04 in 10.0 mi ESE 6.9 mph - N/A   Clear
6:12 PM 82.8 °F 39.4 °F 21% 30.04 in 10.0 mi SE 8.1 mph - N/A   Clear
6:32 PM 82.8 °F 38.5 °F 21% 30.04 in 10.0 mi ESE 5.8 mph - N/A   Clear
6:52 PM 82.4 °F 39.2 °F 21% 30.04 in 10.0 mi ESE 5.8 mph - N/A   Clear
7:12 PM 81.9 °F 37.4 °F 20% 30.04 in 10.0 mi ESE 6.9 mph - N/A   Clear
7:32 PM 81.1 °F 38.7 °F 22% 30.04 in 10.0 mi East 5.8 mph - N/A   Clear
7:52 PM 80.4 °F 38.5 °F 22% 30.05 in 10.0 mi East 4.6 mph - N/A   Clear
8:12 PM 78.8 °F 40.3 °F 25% 30.05 in 10.0 mi East 4.6 mph - N/A   Clear
8:32 PM 77.0 °F 42.1 °F 29% 30.06 in 7.0 mi East 4.6 mph - N/A   Clear
8:53 PM 74.8 °F 42.6 °F 31% 30.05 in 10.0 mi ESE 4.6 mph - N/A   Clear
9:12 PM 75.6 °F 41.5 °F 29% 30.05 in 10.0 mi ESE 4.6 mph - N/A   Clear
9:32 PM 74.7 °F 41.5 °F 30% 30.06 in 10.0 mi ESE 5.8 mph - N/A   Clear
9:53 PM 74.8 °F 40.1 °F 29% 30.06 in 10.0 mi ESE 6.9 mph - N/A   Clear
10:12 PM 74.8 °F 39.2 °F 28% 30.06 in 10.0 mi ESE 9.2 mph - N/A   Clear
10:32 PM 75.2 °F 38.3 °F 26% 30.07 in 10.0 mi SE 9.2 mph - N/A   Clear
10:53 PM 74.3 °F 39.2 °F 28% 30.06 in 10.0 mi SE 8.1 mph - N/A   Clear
11:12 PM 73.9 °F 40.6 °F 30% 30.06 in 10.0 mi SE 8.1 mph - N/A   Clear
11:32 PM 73.4 °F 42.1 °F 32% 30.06 in 10.0 mi SE 8.1 mph - N/A   Clear
11:53 PM 73.4 °F 44.8 °F 36% 30.07 in 10.0 mi SE 6.9 mph - N/A   Clear